Location: Moy Burn
(57.3833°N, 4.0667°W)
Time: 09:44:43
(UTC+00:00)

Helios 1A - Pass Details

Date: 08 August 2020
Orbit: 588 x 599 km, 98.2° (Epoch: 06 September)

Event Time Altitude Azimuth Distance (km) Brightness Sun altitude
Exits shadow 23:49:47 30° 150° (SSE) 1,083 3.8 -16.5°
Maximum altitude 23:51:48 74° 71° (ENE) 631 3.1 -16.6°
Drops below altitude 10° 23:56:02 10° 346° (NNW) 1,956 6.9 -16.6°
Sets 23:58:13 0° 345° (NNW) 2,864 8.2 -16.7°
